Date String (YYYY-MM-DD hh:mm:ss) UTC,Instrument flags,absolute air pressure of the measurement (hPa),sample flow rate (lpm),inlet stack bypass flow (lpm),air temperature of the measurement (°C),ambient temperature measured by the external sensor (°C),aerosol sample conditioner tube jacket temperature (°C),OPC LED temperature (°C),internal box temperature (°C),relative humidity of the measurement (%),span deviation,mass concentration of particles derived from Lorenz-Mie calculation of OPC scattering (μg/m³),mass concentration of particles derived from Lorenz-Mie calculation of OPC scattering (μg/m³),mass concentration of particles derived from Lorenz-Mie calculation of OPC scattering (μg/m³)
DateTimeUTC,F1_M11,P_M11,Q1_M11,Q2_M11,T1_M11,T2_M11,T3_M11,T4_M11,T5_M11,U1_M11,ZSPAN_M11,X0_M11,X2_M11,X1_M11
2023-10-26 19:00:00,SystemResetWarning,0823.3,5.00,000.00,028.7,027.3,000.0,037.2,030.3,21.3,-002.9,0016.39,0008.89,0008.28
2023-10-26 19:01:00,SystemResetWarning,0823.3,5.01,000.00,028.7,027.3,000.0,037.2,030.3,21.3,-003.0,0016.42,0008.89,0008.30
2023-10-26 19:02:00,SystemResetWarning,0823.3,5.01,000.00,028.7,027.2,000.0,037.2,030.2,21.3,-002.8,0015.28,0008.89,0008.32
2023-10-26 19:03:00,SystemResetWarning,0823.3,5.01,000.00,028.7,027.2,000.0,037.2,030.2,21.3,-002.6,0015.06,0008.92,0008.33
2023-10-26 19:04:00,SystemResetWarning,0823.3,5.00,000.00,028.7,027.2,000.0,037.2,030.2,21.4,-002.7,0014.27,0008.93,0008.35
2023-10-26 19:05:00,SystemResetWarning,0823.4,5.00,000.00,028.7,027.2,000.0,037.2,030.2,21.3,-002.4,0013.76,0008.92,0008.37
2023-10-26 19:06:00,SystemResetWarning,0823.3,5.00,000.00,028.7,027.2,000.0,037.2,030.2,21.4,-002.2,0012.88,0008.88,0008.39
2023-10-26 19:07:00,SystemResetWarning,0823.4,5.00,000.00,028.7,027.2,000.0,037.2,030.2,21.5,-001.9,0012.73,0008.88,0008.40
2023-10-26 19:08:00,SystemResetWarning,0823.3,5.00,000.00,028.6,027.2,000.0,037.2,030.2,21.4,-001.9,0012.75,0008.88,0008.39
2023-10-26 19:09:00,SystemResetWarning,0823.3,5.00,000.00,028.6,027.2,000.0,037.1,030.2,21.5,-001.7,0012.60,0008.91,0008.43
2023-10-26 19:10:00,SystemResetWarning,0823.2,4.99,000.00,028.6,027.1,000.0,037.1,030.2,21.5,-001.8,0012.59,0008.93,0008.45
2023-10-26 19:11:00,SystemResetWarning,0823.1,5.00,000.00,028.6,027.2,000.0,037.1,030.2,21.5,-001.7,0012.90,0008.95,0008.47
2023-10-26 19:12:00,SystemResetWarning,0823.0,4.99,000.00,028.6,027.2,000.0,037.1,030.2,21.5,-001.6,0012.86,0008.96,0008.47
2023-10-26 19:13:00,SystemResetWarning,0823.0,5.00,000.00,028.6,027.2,000.0,037.1,030.2,21.5,-001.5,0013.27,0008.99,0008.48
2023-10-26 19:14:00,SystemResetWarning,0823.0,5.00,000.00,028.6,027.2,000.0,037.1,030.2,21.5,-001.4,0013.31,0008.99,0008.46
2023-10-26 19:15:00,SystemResetWarning,0823.1,5.00,000.00,028.6,027.2,000.0,037.1,030.1,21.5,-001.2,0013.66,0008.98,0008.45
2023-10-26 19:16:00,SystemResetWarning,0823.0,5.00,000.00,028.6,027.2,000.0,037.1,030.1,21.5,-001.3,0014.55,0009.00,0008.42
2023-10-26 19:17:00,SystemResetWarning,0823.0,5.00,000.00,028.6,027.2,000.0,037.1,030.1,21.5,-001.3,0014.77,0009.03,0008.40
2023-10-26 19:18:00,SystemResetWarning,0823.0,5.01,000.00,028.6,027.1,000.0,037.1,030.1,21.5,-001.1,0014.86,0009.01,0008.39
2023-10-26 19:19:00,SystemResetWarning,0822.9,5.00,000.00,028.6,027.1,000.0,037.1,030.2,21.5,-001.2,0015.38,0008.96,0008.37
2023-10-26 19:20:00,SystemResetWarning,0823.0,5.01,000.00,028.6,027.1,000.0,037.1,030.2,21.6,-001.1,0015.48,0008.89,0008.33
2023-10-26 19:21:00,SystemResetWarning,0823.3,5.00,000.00,028.6,027.1,000.0,037.1,030.2,21.6,-001.0,0015.29,0008.83,0008.29
2023-10-26 19:22:00,SystemResetWarning,0823.0,5.00,000.00,028.6,027.2,000.0,037.1,030.2,21.6,-000.8,0015.08,0008.82,0008.27
2023-10-26 19:23:00,SystemResetWarning,0823.0,5.00,000.00,028.6,027.2,000.0,037.1,030.2,21.7,-000.6,0014.96,0008.82,0008.26
2023-10-26 19:24:00,SystemResetWarning,0823.0,4.99,000.00,028.6,027.2,000.0,037.1,030.2,21.7,-000.6,0014.75,0008.82,0008.25
2023-10-26 19:25:00,SystemResetWarning,0823.0,4.99,000.00,028.6,027.2,000.0,037.1,030.2,21.8,-000.6,0014.54,0008.80,0008.26
2023-10-26 19:26:00,SystemResetWarning,0823.1,5.00,000.00,028.6,027.2,000.0,037.1,030.2,21.8,-000.5,0014.71,0008.86,0008.29
2023-10-26 19:27:00,SystemResetWarning,0823.0,4.99,000.00,028.6,027.2,000.0,037.1,030.2,21.9,-000.6,0014.02,0008.88,0008.29
2023-10-26 19:28:00,SystemResetWarning,0823.2,5.00,000.00,028.6,027.3,000.0,037.1,030.2,21.8,-000.4,0013.59,0008.92,0008.34
2023-10-26 19:29:00,SystemResetWarning,0823.3,5.00,000.00,028.6,027.2,000.0,037.1,030.2,21.8,-000.3,0013.86,0008.97,0008.36
2023-10-26 19:30:00,SystemResetWarning,0823.0,5.01,000.00,028.6,027.2,000.0,037.1,030.2,21.8,-000.4,0013.77,0009.05,0008.41
2023-10-26 19:31:00,SystemResetWarning,0823.2,5.00,000.00,028.6,027.3,000.0,037.1,030.2,21.9,-000.3,0013.17,0009.07,0008.44
2023-10-26 19:32:00,SystemResetWarning,0822.9,5.00,000.00,028.6,027.2,000.0,037.1,030.2,21.9,-000.3,0013.19,0009.11,0008.45
2023-10-26 19:33:00,SystemResetWarning,0822.8,5.00,000.00,028.6,027.2,000.0,037.1,030.2,21.8,-000.3,0013.37,0009.13,0008.46
2023-10-26 19:34:00,SystemResetWarning,0822.9,4.99,000.00,028.6,027.2,000.0,037.1,030.2,21.7,-000.3,0013.70,0009.14,0008.46
2023-10-26 19:35:00,SystemResetWarning,0822.9,4.99,000.00,028.6,027.3,000.0,037.1,030.2,21.7,-000.4,0013.75,0009.15,0008.47
2023-10-26 19:36:00,SystemResetWarning,0823.2,5.01,000.00,028.6,027.3,000.0,037.1,030.2,21.7,-000.7,0013.92,0009.16,0008.49
2023-10-26 19:37:00,SystemResetWarning,0823.0,5.01,000.00,028.6,027.3,000.0,037.1,030.2,21.7,-000.5,0014.36,0009.17,0008.51
2023-10-26 19:38:00,SystemResetWarning,0823.0,5.00,000.00,028.6,027.3,000.0,037.1,030.2,21.7,-000.1,0014.59,0009.19,0008.53
2023-10-26 19:39:00,SystemResetWarning,0823.0,5.00,000.00,028.6,027.3,000.0,037.1,030.2,21.7,0000.3,0014.77,0009.21,0008.53
2023-10-26 19:40:00,SystemResetWarning,0822.9,5.01,000.00,028.7,027.3,000.0,037.1,030.2,21.7,0000.1,0014.69,0009.24,0008.55
2023-10-26 19:41:00,SystemResetWarning,0822.8,5.00,000.00,028.6,027.3,000.0,037.1,030.2,21.6,-000.1,0014.55,0009.24,0008.56
2023-10-26 19:42:00,SystemResetWarning,0822.7,5.00,000.00,028.6,027.2,000.0,037.1,030.2,21.6,-000.1,0014.68,0009.28,0008.59
2023-10-26 19:43:00,SystemResetWarning,0822.7,4.99,000.00,028.6,027.2,000.0,037.1,030.2,21.7,-000.1,0015.69,0009.34,0008.64
2023-10-26 19:44:00,SystemResetWarning,0822.8,5.00,000.00,028.6,027.2,000.0,037.1,030.2,21.7,-000.4,0015.91,0009.38,0008.66
2023-10-26 19:45:00,SystemResetWarning,0822.8,4.99,000.00,028.6,027.2,000.0,037.1,030.2,21.7,-000.6,0015.64,0009.42,0008.69
2023-10-26 19:46:00,SystemResetWarning,0822.5,5.00,000.00,028.6,027.1,000.0,037.1,030.1,21.7,-000.8,0015.65,0009.46,0008.72
2023-10-26 19:47:00,SystemResetWarning,0822.8,5.00,000.00,028.6,027.1,000.0,037.0,030.1,21.7,-000.7,0015.73,0009.51,0008.75
2023-10-26 19:48:00,SystemResetWarning,0822.9,5.00,000.00,028.6,027.1,000.0,037.0,030.1,21.7,-000.9,0015.76,0009.55,0008.76
2023-10-26 19:49:00,SystemResetWarning,0822.8,5.00,000.00,028.6,027.1,000.0,037.0,030.1,21.7,-000.9,0015.79,0009.56,0008.78
2023-10-26 19:50:00,SystemResetWarning,0822.7,5.00,000.00,028.6,027.1,000.0,037.1,030.1,21.6,-001.0,0015.93,0009.57,0008.79
2023-10-26 19:51:00,SystemResetWarning,0822.7,5.00,000.00,028.6,027.1,000.0,037.1,030.1,21.7,-001.2,0016.04,0009.55,0008.80
2023-10-26 19:52:00,SystemResetWarning,0822.8,5.00,000.00,028.6,027.1,000.0,037.1,030.1,21.6,-001.2,0016.09,0009.59,0008.81
2023-10-26 19:53:00,SystemResetWarning,0822.9,5.00,000.00,028.6,027.1,000.0,037.1,030.2,21.6,-001.0,0016.14,0009.62,0008.81
2023-10-26 19:54:00,SystemResetWarning,0822.9,5.00,000.00,028.6,027.2,000.0,037.1,030.1,21.6,-001.1,0015.44,0009.63,0008.84
2023-10-26 19:55:00,SystemResetWarning,0823.0,5.00,000.00,028.6,027.2,000.0,037.1,030.1,21.6,-001.1,0015.00,0009.64,0008.89
2023-10-26 19:56:00,SystemResetWarning,0823.1,5.00,000.00,028.6,027.1,000.0,037.1,030.1,21.7,-000.8,0015.26,0009.67,0008.93
2023-10-26 19:57:00,SystemResetWarning,0822.8,5.00,000.00,028.6,027.2,000.0,037.1,030.1,21.7,-000.6,0015.42,0009.73,0008.98
2023-10-26 19:58:00,SystemResetWarning,0823.0,5.00,000.00,028.6,027.1,000.0,037.1,030.1,21.7,-000.5,0015.47,0009.78,0009.02
2023-10-26 19:59:00,SystemResetWarning,0823.0,5.00,000.00,028.6,027.1,000.0,037.0,030.1,21.6,-000.6,0015.30,0009.81,0009.07
